Location: Fazenda Monte Alegre
(4.8500°S, 38.0333°W)
Time: 15:37:27
(UTC+00:00)

CZ-4 R/B - Pass Details

Date: 24 September 2020
Orbit: 530 x 600 km, 97.7° (Epoch: 19 October)

Event Time Altitude Azimuth Distance (km) Brightness Sun altitude
Rises 21:44:14 0° 174° (S) 2,831 4.9 -19.9°
Reaches altitude 10° 21:46:25 10° 178° (S) 1,933 4.1 -20.5°
Maximum altitude 21:50:34 62° 258° (WSW) 674 1.9 -21.5°
Drops below altitude 10° 21:54:43 10° 339° (NNW) 1,932 4.3 -22.5°
Sets 21:56:54 0° 342° (NNW) 2,829 5.1 -23.1°
